Delta Virtual Airport Information Service

Los Angeles International Airport

ICAO: KLAX Country: United States
Latitude: 33.9425 Longitude: -118.407
Latest Arrival : AAL192 (VHHH-KLAX) Latest Departure : DAL1714 (KLAX-KLAS)


WX CaptureLIVE
Data provided by noaa.gov | Fetched at 10:13:09

METAR : KLAX 151353Z 10005KT 10SM FEW018 FEW200 SCT250 18/14 A2988 RMK AO2 SLP117 T01830144

TAF : KLAX 151406Z 1514/1618 VRB03KT P6SM SKC FM151900 26012KT P6SM SKC FM160400 26006KT P6SM SKC FM160800 VRB03KT P6SM SKC FM161200 13006KT P6SM SKC FM161700 24006KT P6SM SKC


Runway Data for KLAX
Data provided by openaviationdata.com

Runway ID Mag Var Hdg Length Elevation Surface ILS Freq ILS Id ILS Slope
06L 13 69° 8916 ft 126 ft Concrete 108.5 IUWU 3
06R 13 69° 10274 ft 126 ft Concrete 111.7 IGPE 3
07L 13 69° 12078 ft 126 ft Concrete 111.1 IIAS 3
07R 13 69° 11084 ft 126 ft Concrete 109.9 IMKZ 3
24L 13 249° 10274 ft 126 ft Concrete 111.7 IHQB 3
24R 13 249° 8916 ft 126 ft Concrete 108.5 IOSS 3
25L 13 249° 11084 ft 126 ft Concrete 109.9 ILAX 3
25R 13 249° 12078 ft 126 ft Concrete 111.1 ICFN 3

Los Angeles International Airport, United States
Use only for reference purposes



Not for navigational purposes.